Hourly Data Report for October 09, 2016

All times are specified in Local Standard Time (LST). Add 1 hour to adjust for Daylight Saving Time where and when it is observed.

KAMLOOPS A
BRITISH COLUMBIA

50°42'09.000" N
120°26'55.000" W
345.30 m
1163781
71887
YKA

Download Data

Hourly Data (October 2016)
Hourly Data Report for October 9, 2016
Temp Definition
°C
Dew Point Temp Definition
°C
Rel Hum Definition
%
Wind Dir Definition
10's deg

Wind Spd Definition
km/h
Visibility Definition
km
Stn Press Definition
kPa
Hmdx Definition


Wind Chill Definition


Weather Definition


TIME
00:00 Legend Double Dagger 6.0 4.0 87 25 5 48.3 97.02     Rain
01:00 Legend Double Dagger 6.3 3.5 82 28 4 64.4 97.14     Mostly Cloudy
02:00 Legend Double Dagger 5.5 3.5 87 28 18 64.4 97.23     LegendNANA
03:00 Legend Double Dagger 6.1 2.4 77 27 26 64.4 97.35     LegendNANA
04:00 Legend Double Dagger 5.8 2.1 77 27 13 64.4 97.45     Mainly Clear
05:00 Legend Double Dagger 6.2 1.5 72 25 18 64.4 97.51     LegendNANA
06:00 Legend Double Dagger 5.1 0.7 73 29 9 64.4 97.58     LegendNANA
07:00 Legend Double Dagger 5.4 0.6 71 28 19 64.4 97.63     Mainly Clear
08:00 Legend Double Dagger 6.6 0.5 65 30 11 64.4 97.72     LegendNANA
09:00 Legend Double Dagger 7.3 -0.4 58 30 13 64.4 97.78     LegendNANA
10:00 Legend Double Dagger 8.0 0.5 59 27 16 64.4 97.78     Mostly Cloudy
11:00 Legend Double Dagger 8.8 0.3 55 29 20 64.4 97.80     LegendNANA
12:00 Legend Double Dagger 8.2 0.2 57 28 18 64.4 97.82     LegendNANA
13:00 Legend Double Dagger 9.4 1.1 56 28 21 64.4 97.76     Mostly Cloudy
14:00 Legend Double Dagger 9.1 0.6 55 28 17 64.4 97.75     LegendNANA
15:00 Legend Double Dagger 9.1 0.8 56 29 18 64.4 97.77     LegendNANA
16:00 Legend Double Dagger 8.5 0.7 58 27 17 64.4 97.75     Mostly Cloudy
17:00 Legend Double Dagger 7.7 0.5 60 27 9 64.4 97.72     LegendNANA
18:00 Legend Double Dagger 7.1 0.6 63 28 7 64.4 97.75     LegendNANA
19:00 Legend Double Dagger 6.7 0.6 65 28 10 64.4 97.73     Cloudy
20:00 Legend Double Dagger 6.3 1.1 69 26 8 64.4 97.72     LegendNANA
21:00 Legend Double Dagger 7.0 -0.5 59 27 6 64.4 97.75     LegendNANA
22:00 Legend Double Dagger 6.7 -1.0 58 26 7 64.4 97.73     Cloudy
23:00 Legend Double Dagger 5.8 -0.5 64 31 8 64.4 97.71     LegendNANA

Notes on Data Quality.

Legend

  • E = Estimated
  • M = Missing
  • NA = Not Available
  • ‡ = Partner data that is not subject to review by the National Climate Archives
Date modified: